Regional Weather Roundup
Issued by NWS

Home | Current Version | Previous Version | Text Only | Print | Product List | Glossary Off
Versions: 1 2 3 4 5 6 7 8 9 10 11 12 13 14 15 16 17 18 19 20 21 22 23 24 25 26 27 28

000
ASUS45 KCYS 220910
RWRWY

WYOMING REGIONAL WEATHER ROUNDUP
NATIONAL WEATHER SERVICE CHEYENNE WY
200 AM MST WED NOV 22 2017

NOTE:  "FAIR" INDICATES FEW OR NO CLOUDS BELOW 12,000 FEET
WITH NO SIGNIFICANT WEATHER AND/OR OBSTRUCTIONS TO VISIBILITY.

WYZ001-221000-
YELLOWSTONE NATIONAL PARK

CITY           SKY/WX    TMP DP  RH WIND       PRES   REMARKS
LK YELLOWSTONE   N/A     36  35  96 CALM      30.37F
W YELLOWSTONE  NOT AVBL

$$
WYZ002>013-054>058-071-098>099-221000-
NORTHERN WYOMING

CITY           SKY/WX    TMP DP  RH WIND       PRES   REMARKS
JACKSON        LGT RAIN  41  39  93 CALM      30.35F
CODY           FAIR      56  36  47 W8G20     30.15R
GREYBULL       FAIR      34  29  82 SE5       30.16F WCI  30
WORLAND        FAIR      27  27 100 E3        30.17S
SHERIDAN       FAIR      29  29 100 SW5       30.04F WCI  24
BUFFALO        FAIR      44  14  29 E7        30.07F
GILLETTE       FAIR      48  27  44 SW12G24   30.07F
HULETT         PTSUNNY   41  27  56 SW12      30.08F
NEWCASTLE      FAIR      32  25  74 CALM      30.14F

$$
WYZ014>020-022>026-101>103-221000-
CENTRAL WYOMING

CITY           SKY/WX    TMP DP  RH WIND       PRES   REMARKS
BIG PINEY      LGT RAIN  34  33  96 E5        30.39F WCI  30
PINEDALE       DRIZZLE   34  32  93 W5        30.40F WCI  30
DUBOIS         CLOUDY    41  34  75 N12       30.28S
LANDER         FAIR      42  29  59 NW9       30.21R
RIVERTON       FAIR      49  29  46 CALM      30.22F
CASPER         FAIR      45  32  60 SW10      30.20R
DOUGLAS        FAIR      30  29  96 S6        30.16F WCI  24

$$
WYZ021-027>030-104>119-221000-
SOUTHERN WYOMING

CITY           SKY/WX    TMP DP  RH WIND       PRES   REMARKS
EVANSTON       MOCLDY    39  36  89 SW8       30.44F WCI  33
KEMMERER       CLOUDY    37  34  87 SW7       30.43S WCI  32
FORT BRIDGER   CLOUDY    46  37  71 SW13G20   30.46S
ROCK SPRINGS   CLOUDY    43  35  73 SW14      30.40F
DIXON          CLOUDY    35  32  90 CALM      30.44S
RAWLINS        FAIR      41  35  79 W17       30.33F
SARATOGA       PTSUNNY   41  34  75 SW13      30.36F
LARAMIE        MOCLDY    40  31  70 W14       30.29F WCI  32
CHEYENNE       FAIR      41  32  70 W12       30.23S
TORRINGTON     FAIR      32  27  81 CALM      30.17F
PINE BLUFFS    FAIR      32  32 100 MISG      30.21F

$$




USA.gov is the U.S. government's official web portal to all federal, state and local government web resources and services.